TimePDT,TemperatureF,Dew PointF,Humidity,Sea Level PressureIn,VisibilityMPH,Wind Direction,Wind SpeedMPH,Gust SpeedMPH,PrecipitationIn,Events,Conditions,WindDirDegrees,DateUTC
12:53 AM,54.0,44.1,69,29.98,10.0,NW,3.5,-,N/A,,Clear,310,2013-09-08 07:53:00
1:53 AM,55.0,46.0,72,29.98,10.0,Calm,Calm,-,N/A,,Clear,0,2013-09-08 08:53:00
2:53 AM,60.1,48.9,67,29.96,10.0,NNW,9.2,-,N/A,,Clear,340,2013-09-08 09:53:00
3:53 AM,50.0,45.0,83,29.98,10.0,Calm,Calm,-,N/A,,Clear,0,2013-09-08 10:53:00
4:53 AM,53.1,46.9,80,29.97,10.0,North,5.8,-,N/A,,Clear,350,2013-09-08 11:53:00
5:53 AM,50.0,46.9,89,29.99,10.0,Calm,Calm,-,N/A,,Clear,0,2013-09-08 12:53:00
6:53 AM,46.9,44.1,90,30.01,10.0,Calm,Calm,-,N/A,,Clear,0,2013-09-08 13:53:00
7:53 AM,54.0,46.0,75,30.01,10.0,Calm,Calm,-,N/A,,Clear,0,2013-09-08 14:53:00
8:53 AM,62.1,50.0,65,30.01,10.0,Calm,Calm,-,N/A,,Clear,0,2013-09-08 15:53:00
9:53 AM,68.0,48.0,49,30.01,10.0,North,3.5,-,N/A,,Clear,360,2013-09-08 16:53:00
10:53 AM,70.0,48.0,46,30.01,10.0,Calm,Calm,-,N/A,,Clear,0,2013-09-08 17:53:00
11:53 AM,75.0,46.0,36,29.99,10.0,WNW,4.6,-,N/A,,Clear,290,2013-09-08 18:53:00
12:53 PM,78.1,42.1,28,29.97,10.0,Calm,Calm,-,N/A,,Clear,0,2013-09-08 19:53:00
1:53 PM,80.1,43.0,27,29.95,10.0,East,3.5,-,N/A,,Clear,90,2013-09-08 20:53:00
2:53 PM,82.9,37.0,19,29.91,10.0,NNW,12.7,-,N/A,,Clear,330,2013-09-08 21:53:00
3:53 PM,84.0,37.0,19,29.91,10.0,NW,13.8,-,N/A,,Clear,320,2013-09-08 22:53:00
4:53 PM,84.0,35.1,17,29.90,10.0,NW,12.7,-,N/A,,Clear,320,2013-09-08 23:53:00
5:53 PM,82.9,36.0,19,29.90,10.0,NNW,15.0,-,N/A,,Clear,330,2013-09-09 00:53:00
6:53 PM,81.0,37.0,21,29.91,10.0,NW,11.5,-,N/A,,Clear,320,2013-09-09 01:53:00
7:53 PM,73.0,44.1,35,29.92,10.0,NNW,8.1,-,N/A,,Clear,330,2013-09-09 02:53:00
8:53 PM,71.1,36.0,28,29.94,10.0,North,5.8,-,N/A,,Clear,350,2013-09-09 03:53:00
9:53 PM,71.1,37.9,30,29.95,10.0,Calm,Calm,-,N/A,,Clear,0,2013-09-09 04:53:00
10:53 PM,70.0,39.0,32,29.97,10.0,NE,13.8,21.9,N/A,,Clear,50,2013-09-09 05:53:00
11:53 PM,66.0,37.9,36,29.97,10.0,NNE,8.1,-,N/A,,Clear,30,2013-09-09 06:53:00